Weather History for Toledo, OH

Change the Weather History Date:

Friday, August 23, 2013

  Actual Average Record
Temperature  
Mean Temperature 71 °F 71 °F  
Max Temperature 83 °F 82 °F 96 °F (1936)
Min Temperature 59 °F 60 °F 43 °F (1973)
Degree Days  
Heating Degree Days 0 0  
Month to date heating degree days 16 0  
Since 1 June heating degree days 60 38  
Since 1 July heating degree days 29 3  
Cooling Degree Days 6 6  
Month to date cooling degree days 97 169  
Year to date cooling degree days 598 657  
Since 1 June cooling degree days 504 604  
Growing Degree Days 22 (Base 50)    
Moisture  
Dew Point 59 °F    
Average Humidity 66    
Maximum Humidity 100    
Minimum Humidity 31    
Precipitation  
Precipitation T in 0.10 in 0.82 in (1988)
Month to date precipitation 1.55 2.36  
Year to date precipitation 26.34 22.53  
Snow  
Snow 0.00 in 0.00 in - ()
Month to date snowfall 0.0 0.0  
Since 1 June snowfall 0.0 0.0  
Since 1 July snowfall 0.0 0.0  
Snow Depth 0.00 in    
Sea Level Pressure  
Sea Level Pressure 30.10 in    
Wind  
Wind Speed 5 mph (North)    
Max Wind Speed 13 mph    
Max Gust Speed 16 mph    
Visibility 9 miles    
Events      
T = Trace of Precipitation, MM = Missing Value Source: NWS Daily Summary

Daily Weather History Graph

Daily Weather History Graph

Search for Another Location

Airport:

Trip Planner

Search our weather history database for the weather conditions in past years. The results will help you decide how hot, cold, wet, or windy it might be!

Date:

Astronomy

Aug. 23, 2013 Rise Set
Actual Time 6:52 AM EDT 8:22 PM EDT
Civil Twilight 6:23 AM EDT 8:51 PM EDT
Nautical Twilight 5:48 AM EDT 9:26 PM EDT
Astronomical Twilight 5:10 AM EDT 10:03 PM EDT
Moon 9:37 PM EDT (8/23) 9:49 AM EDT (8/23)
Length of Visible Light 14h 28m
Length of Day
13h 30m
Waning Gibbous, 91% of the Moon is Illuminated
Aug 23
Waning Gibbous
Aug 28
Last Quarter
Sep 5
New
Sep 12
First Quarter
Sep 19
Full

Hourly Weather History & Observations

Time (EDT) Temp. Heat Index Dew Point Humidity Pressure Visibility Wind Dir Wind Speed Gust Speed Precip Events Conditions
12:52 AM 68.0 °F - 66.0 °F 93% 30.06 in 10.0 mi WSW 6.9 mph - N/A   Overcast
1:52 AM 66.9 °F - 66.0 °F 97% 30.06 in 10.0 mi West 5.8 mph - 0.00 in   Overcast
2:52 AM 66.9 °F - 66.0 °F 97% 30.05 in 7.0 mi WNW 5.8 mph - N/A   Overcast
3:52 AM 68.0 °F - 66.0 °F 93% 30.05 in 6.0 mi NNW 5.8 mph - N/A   Overcast
4:03 AM 68.0 °F - 66.2 °F 94% 30.06 in 6.0 mi NNW 6.9 mph - N/A   Overcast
4:27 AM 68.0 °F - 66.2 °F 94% 30.06 in 6.0 mi North 3.5 mph - N/A   Mostly Cloudy
4:34 AM 68.0 °F - 66.2 °F 94% 30.06 in 6.0 mi NNW 5.8 mph - N/A   Mostly Cloudy
4:52 AM 66.9 °F - 66.0 °F 97% 30.05 in 5.0 mi NNW 6.9 mph - N/A   Partly Cloudy
5:18 AM 66.2 °F - 66.2 °F 100% 30.07 in 5.0 mi North 6.9 mph - N/A   Partly Cloudy
5:52 AM 66.0 °F - 64.9 °F 96% 30.06 in 6.0 mi NNE 5.8 mph - N/A   Clear
6:52 AM 64.9 °F - 62.1 °F 90% 30.09 in 9.0 mi North 3.5 mph - N/A   Clear
7:52 AM 64.0 °F - 60.1 °F 87% 30.11 in 10.0 mi North 3.5 mph - N/A   Clear
8:52 AM 66.9 °F - 60.1 °F 79% 30.12 in 10.0 mi NNE 5.8 mph - N/A   Clear
9:52 AM 71.1 °F - 60.1 °F 68% 30.13 in 10.0 mi NE 5.8 mph - N/A   Clear
10:52 AM 75.0 °F - 57.0 °F 53% 30.14 in 10.0 mi NNE 9.2 mph - N/A   Clear
11:52 AM 77.0 °F - 55.9 °F 48% 30.14 in 10.0 mi NNE 9.2 mph - N/A   Clear
12:52 PM 80.1 °F 80.1 °F 55.0 °F 42% 30.13 in 10.0 mi North 10.4 mph - N/A   Clear
1:52 PM 81.0 °F 80.4 °F 53.1 °F 38% 30.13 in 10.0 mi Variable 4.6 mph - N/A   Clear
2:52 PM 82.0 °F 81.2 °F 53.1 °F 37% 30.12 in 10.0 mi North 4.6 mph - N/A   Scattered Clouds
3:52 PM 82.0 °F - 50.0 °F 33% 30.12 in 10.0 mi NNE 6.9 mph - N/A   Clear
4:52 PM 82.0 °F - 48.9 °F 31% 30.11 in 10.0 mi NNW 8.1 mph - N/A   Clear
5:52 PM 81.0 °F - 48.9 °F 33% 30.11 in 10.0 mi North 8.1 mph - N/A   Clear
6:52 PM 80.1 °F - 48.9 °F 34% 30.11 in 10.0 mi North 6.9 mph - N/A   Clear
7:52 PM 75.9 °F - 53.1 °F 45% 30.12 in 10.0 mi NNE 4.6 mph - N/A   Clear
8:52 PM 66.0 °F - 55.9 °F 70% 30.14 in 10.0 mi Calm Calm - N/A   Clear
9:52 PM 62.1 °F - 57.0 °F 84% 30.16 in 10.0 mi Calm Calm - N/A   Clear
10:52 PM 61.0 °F - 57.0 °F 87% 30.18 in 10.0 mi Calm Calm - N/A   Clear
11:52 PM 61.0 °F - 55.9 °F 83% 30.19 in 10.0 mi Calm Calm - N/A   Clear